Weather History for KAEJ - February, 2014

Change the Weather History Date:

Monday, February 24, 2014

  Actual Average (KLXV) Record (KLXV)
Temperature  
Mean Temperature 40 °F -  
Max Temperature 49 °F 33 °F 48 °F (1989)
Min Temperature 33 °F 6 °F -7 °F (1987)
Degree Days  
Heating Degree Days 24 45  
Month to date heating degree days 1132  
Since 1 July heating degree days 7529  
Cooling Degree Days 0 0  
Month to date cooling degree days 0  
Year to date cooling degree days 0  
Moisture  
Dew Point 7 °F    
Average Humidity 27    
Maximum Humidity 37    
Minimum Humidity 18    
Precipitation  
Precipitation 0.00 in 0.03 in 0.58 in (2008)
Month to date precipitation 0.59  
Year to date precipitation 1.21  
Sea Level Pressure  
Sea Level Pressure 30.03 in    
Wind  
Wind Speed 16 mph (WSW)    
Max Wind Speed 22 mph    
Max Gust Speed 32 mph    
Visibility 10 miles    
Events      
T = Trace of Precipitation, MM = Missing Value Source: NWS Daily Summary

Daily Weather History Graph

Daily Weather History Graph

Search for Another Location

Airport or City:

Trip Planner

Search our weather history database for the weather conditions in past years. The results will help you decide how hot, cold, wet, or windy it might be!

Date:

Astronomy

Feb. 24, 2014 Rise Set
Actual Time 6:43 AM MST 5:52 PM MST
Civil Twilight 6:16 AM MST 6:18 PM MST
Nautical Twilight 5:46 AM MST 6:49 PM MST
Astronomical Twilight 5:15 AM MST 7:20 PM MST
Moon 2:43 AM MST (2/24) 12:57 PM MST (2/24)
Length of Visible Light 12h 02m
Length of Day
11h 08m
Waning Crescent, 27% of the Moon is Illuminated
Feb 24
Waning Crescent
Mar 1
New
Mar 8
First Quarter
Mar 16
Full
Mar 23
Last Quarter

Hourly Weather History & Observations

Time (MST) Temp. Windchill Dew Point Humidity Pressure Visibility Wind Dir Wind Speed Gust Speed Precip Events Conditions
12:15 AM 36.9 °F 27.5 °F 8.4 °F 31% 30.03 in 10.0 mi West 16.1 mph 19.6 mph N/A   Clear
12:35 AM 34.9 °F 25.7 °F 9.9 °F 35% 30.03 in 10.0 mi West 13.8 mph - N/A   Clear
12:55 AM 33.8 °F 24.8 °F 10.0 °F 37% 30.03 in 10.0 mi West 12.7 mph - N/A   Clear
1:15 AM 34.3 °F 25.9 °F 9.5 °F 36% 30.03 in 10.0 mi WSW 11.5 mph - N/A   Clear
1:35 AM 36.7 °F 26.6 °F 9.1 °F 32% 30.02 in 10.0 mi WSW 18.4 mph 25.3 mph N/A   Clear
1:55 AM 36.3 °F 26.4 °F 9.1 °F 32% 30.02 in 10.0 mi WSW 17.3 mph 21.9 mph N/A   Clear
2:15 AM 36.7 °F 26.9 °F 8.2 °F 31% 30.02 in 10.0 mi SW 17.3 mph 26.5 mph N/A   Clear
2:35 AM 35.8 °F 26.5 °F 8.6 °F 32% 30.01 in 10.0 mi WSW 15.0 mph 20.7 mph N/A   Clear
2:55 AM 33.4 °F 24.3 °F 9.5 °F 37% 30.01 in 10.0 mi WSW 12.7 mph - N/A   Clear
3:15 AM 33.8 °F 21.9 °F 8.6 °F 35% 30.00 in 10.0 mi WSW 21.9 mph 27.6 mph N/A   Clear
3:35 AM 35.2 °F 24.4 °F 7.9 °F 32% 30.00 in 10.0 mi WSW 19.6 mph 23.0 mph N/A   Clear
3:55 AM 36.9 °F 27.1 °F 6.8 °F 29% 29.99 in 10.0 mi SW 17.3 mph 24.2 mph N/A   Clear
4:15 AM 35.4 °F 26.4 °F 7.7 °F 32% 30.00 in 10.0 mi West 13.8 mph 20.7 mph N/A   Clear
4:35 AM 36.5 °F 26.7 °F 5.7 °F 28% 30.00 in 10.0 mi WSW 17.3 mph - N/A   Clear
4:55 AM 37.6 °F 28.1 °F 5.7 °F 27% 30.00 in 10.0 mi WSW 17.3 mph 24.2 mph N/A   Clear
5:15 AM 37.4 °F 28.5 °F 5.7 °F 27% 30.00 in 10.0 mi West 15.0 mph - N/A   Clear
5:35 AM 37.2 °F 28.3 °F 5.2 °F 26% 30.01 in 10.0 mi WSW 15.0 mph 27.6 mph N/A   Clear
5:55 AM 36.5 °F 28.2 °F 6.3 °F 28% 30.01 in 10.0 mi West 12.7 mph - N/A   Clear
6:15 AM 35.8 °F 26.1 °F 5.9 °F 29% 30.01 in 10.0 mi WSW 16.1 mph 21.9 mph N/A   Clear
6:35 AM 36.9 °F 28.2 °F 6.1 °F 28% 30.01 in 10.0 mi WSW 13.8 mph 21.9 mph N/A   Clear
6:55 AM 36.9 °F 27.8 °F 6.4 °F 28% 30.02 in 10.0 mi WSW 15.0 mph 23.0 mph N/A   Clear
7:15 AM 36.1 °F 27.7 °F 7.0 °F 30% 30.03 in 10.0 mi WSW 12.7 mph 18.4 mph N/A   Clear
7:35 AM 38.5 °F 30.3 °F 7.2 °F 27% 30.03 in 10.0 mi WSW 13.8 mph 18.4 mph N/A   Clear
7:55 AM 40.3 °F 30.4 °F 5.9 °F 24% 30.04 in 10.0 mi WSW 21.9 mph 27.6 mph N/A   Clear
8:15 AM 41.4 °F 31.9 °F 6.4 °F 24% 30.04 in 10.0 mi WSW 21.9 mph 29.9 mph N/A   Clear
8:35 AM 42.4 °F 33.3 °F 6.3 °F 23% 30.05 in 10.0 mi WSW 21.9 mph 29.9 mph N/A   Clear
8:55 AM 43.3 °F 35.5 °F 5.7 °F 21% 30.05 in 10.0 mi WSW 17.3 mph 32.2 mph N/A   Clear
9:15 AM 44.6 °F 36.4 °F 6.1 °F 21% 30.05 in 10.0 mi WSW 20.7 mph 29.9 mph N/A   Clear
9:35 AM 45.3 °F 37.8 °F 5.9 °F 20% 30.05 in 10.0 mi WSW 18.4 mph 28.8 mph N/A   Clear
9:55 AM 45.9 °F 37.8 °F 4.6 °F 18% 30.05 in 10.0 mi West 21.9 mph 28.8 mph N/A   Clear
10:15 AM 46.8 °F - 5.5 °F 19% 30.05 in 10.0 mi WSW 17.3 mph 25.3 mph N/A   Clear
10:35 AM 47.5 °F - 6.3 °F 19% 30.05 in 10.0 mi West 17.3 mph 27.6 mph N/A   Clear
10:55 AM 48.6 °F - 7.3 °F 19% 30.05 in 10.0 mi WSW 18.4 mph 26.5 mph N/A   Clear
11:15 AM 48.9 °F - 7.5 °F 19% 30.05 in 10.0 mi WSW 21.9 mph 31.1 mph N/A   Clear
11:35 AM 49.8 °F - 8.6 °F 19% 30.04 in 10.0 mi WSW 17.3 mph 23.0 mph N/A   Clear